Simultaneous Nadir Overpasses (SNOs) Predictions

Prediction of SNOs between METOP-B and NOAA-19 Satellite Orbit:

Table of predicted SNOs for the next 14.0 days since TLE Epoch: 4/19/2013
Index Date (METOP-B) Time (METOP-B) Lat,Lon (METOP-B) SZA (METOP-B ) Date (NOAA-19) Time (NOAA-19) Lat,Lon (NOAA-19) SZA (NOAA-19 ) Distance(km) Time Diff (sec)
1 04/24/2013 19:53:23 -73.92, 56.47 119.23 04/24/2013 19:52:16 -73.94, 53.50 119.10 91.49 67
2 04/24/2013 20:44:15 73.28,-137.68 60.17 04/24/2013 20:43:09 73.28,-137.70 60.18 0.54 66
3 04/24/2013 21:34:58 -73.25, 29.58 119.87 04/24/2013 21:34:07 -73.27, 29.58 119.85 1.85 51
4 04/24/2013 22:25:37 73.26,-163.07 60.12 04/24/2013 22:25:13 73.25,-163.15 60.12 2.67 24
5 04/24/2013 23:16:20 -73.23, 4.19 119.92 04/24/2013 23:16:11 -73.24, 4.13 119.90 2.26 9
6 04/25/2013 00:07:00 73.18, 171.43 60.03 04/25/2013 00:07:17 73.21, 171.41 60.06 3.34 17
7 04/25/2013 00:57:43 -73.16, -21.31 120.01 04/25/2013 00:58:14 -73.16, -21.21 120.01 3.12 31
8 04/25/2013 01:48:22 73.16, 146.04 59.99 04/25/2013 01:49:21 73.18, 145.96 60.00 3.37 59
9 04/25/2013 02:39:05 -73.14, -46.69 120.05 04/25/2013 02:40:18 -73.13, -46.66 120.07 1.58 73




NCC Satellite Simultaneous Nadir Overpasses (SNOs) Prediction Service
